Location: Newark
(33.9035°S, 18.4112°E)
Time: 15:07:42
(UTC+00:00)

STARLINK-1086 - Pass Details

Date: 22 January 2020
Orbit: 349 x 351 km, 53.0° (Epoch: 18 February)

Event Time Altitude Azimuth Distance (km) Brightness Sun altitude
Rises 10:47:52 0° 233° (SW) 2,183 6.6 75.9°
Reaches altitude 10° 10:49:59 10° 241° (WSW) 1,332 5.6 76.0°
Maximum altitude 10:52:44 36° 310° (NW) 582 4.5 76.0°
Drops below altitude 10° 10:55:29 10° 19° (NNE) 1,315 5.9 76.1°
Enters shadow 11:23:15 -57° 43° (NE) 11,068 9.7 74.9°
Exits shadow 11:59:33 -51° 210° (SSW) 10,439 9.6 70.4°
